This is the latest recevied weather packets stored in our database for station/object YF9UAG-15. If no packets are shown the sender has not sent any weather packets the latest 10 day(s).
| Time | Temp. | Humidity | Pressure | Rain* | Wind** | Luminosity | Snow |
|---|---|---|---|---|---|---|---|
| 1778136919 | 33.33° C | 86% | 1002.9 hPa | - | - | - | - |
| 1778136798 | 33.33° C | 85% | 1002.9 hPa | - | - | - | - |
| 1778136677 | 33.33° C | 85% | 1002.9 hPa | - | - | - | - |
| 1778136556 | 32.78° C | 86% | 1002.7 hPa | - | - | - | - |
| 1778136435 | 33.33° C | 85% | 1002.8 hPa | - | - | - | - |
| 1778136314 | 33.33° C | 85% | 1002.8 hPa | - | - | - | - |
| 1778136193 | 33.33° C | 83% | 1002.8 hPa | - | - | - | - |
| 1778136072 | 33.33° C | 82% | 1002.7 hPa | - | - | - | - |
| 1778135951 | 33.33° C | 82% | 1002.8 hPa | - | - | - | - |
| 1778135830 | 33.33° C | 79% | 1002.7 hPa | - | - | - | - |
| 1778135709 | 33.33° C | 78% | 1002.8 hPa | - | - | - | - |
| 1778135588 | 33.33° C | 79% | 1002.7 hPa | - | - | - | - |
| 1778135467 | 33.33° C | 79% | 1002.6 hPa | - | - | - | - |
| 1778135346 | 33.33° C | 78% | 1002.6 hPa | - | - | - | - |
| 1778135225 | 33.33° C | 77% | 1002.5 hPa | - | - | - | - |
| 1778135105 | 33.33° C | 77% | 1002.6 hPa | - | - | - | - |
| 1778134984 | 33.33° C | 79% | 1002.7 hPa | - | - | - | - |
| 1778134863 | 33.33° C | 78% | 1002.6 hPa | - | - | - | - |
| 1778134742 | 33.89° C | 78% | 1002.5 hPa | - | - | - | - |
| 1778134621 | 33.33° C | 78% | 1002.6 hPa | - | - | - | - |
| 1778134500 | 33.33° C | 77% | 1002.7 hPa | - | - | - | - |
| 1778134379 | 33.33° C | 77% | 1002.6 hPa | - | - | - | - |
| 1778134258 | 33.33° C | 76% | 1002.7 hPa | - | - | - | - |
| 1778134137 | 32.78° C | 77% | 1002.8 hPa | - | - | - | - |
| 1778134016 | 33.33° C | 78% | 1002.8 hPa | - | - | - | - |
* Rain since midnight (hover to see other rain measurements)
** Current wind speed in m/s (hover to see current wind gust speed)